Regional Weather Roundup
Issued by NWS

Home | Current Version | Previous Version | Text Only | Print | Product List | Glossary Off
Versions: 1 2 3 4 5 6 7 8 9 10 11 12 13 14 15 16 17 18 19 20 21 22 23 24 25 26 27 28 29 30 31 32 33 34 35 36 37 38 39 40 41 42 43 44 45 46 47 48 49 50

000
ASUS45 KBOU 241607
RWRCO

WEATHER ROUNDUP FOR COLORADO
NATIONAL WEATHER SERVICE DENVER/BOULDER CO
900 AM MST SAT JAN 24 2015

NOTE: "FAIR" INDICATES FEW OR NO CLOUDS BELOW 12000 FEET WITH NO
SIGNIFICANT WEATHER AND/OR OBSTRUCTIONS TO VISIBILITY.

COZ001>005-013-030-031-241700-
...NORTHWEST COLORADO...

CITY           SKY/WX    TMP DP  RH WIND       PRES   REMARKS
CRAIG          CLOUDY     9   3  77 SW5       30.41S WCI   1
HAYDEN         CLOUDY    12   3  67 E16       30.38F WCI  -4
MEEKER         CLOUDY     9   2  73 NE6       30.41F WCI  -1
MOUNT WERNER   NOT AVBL
STEAMBOAT SPGS CLOUDY     6   0  76 E5        30.39F WCI  -3
WALDEN         CLOUDY    18   9  68 S9        30.29S WCI   6
$$

COZ006>008-011-241700-
...WEST CENTRAL VALLEYS...

CITY           SKY/WX    TMP DP  RH WIND       PRES   REMARKS
GRAND JUNCTION CLOUDY    27  14  58 E8        30.44R WCI  19
MONTROSE       PTSUNNY   22  11  62 CALM      30.46S
EAGLE          CLOUDY     9   7  92 CALM      30.52R
RIFLE          CLOUDY    19  11  70 E3        30.47R
DELTA          PTSUNNY   22  15  74 CALM      30.47R
NUCLA          PTSUNNY   25  14  63 NE3       30.45R
$$

COZ017>023-064>068-241700-
...SOUTHWEST COLORADO...

CITY           SKY/WX    TMP DP  RH WIND       PRES   REMARKS
DURANGO        SUNNY     22  15  75 N3        30.36R
CORTEZ         SUNNY     25  17  72 E7        30.39R WCI  17
PAGOSA SPRINGS SUNNY     23  13  66 CALM      30.34R
TELLURIDE      NOT AVBL
WOLF CREEK PAS NOT AVBL
$$

COZ009-010-012-014-032>034-037-058>063-241700-
...CENTRAL COLORADO...

CITY           SKY/WX    TMP DP  RH WIND       PRES   REMARKS
ASPEN          CLOUDY    15   6  67 CALM      30.38F
BUENA VISTA    CLOUDY    24  13  64 SW8       30.28F WCI  14
COPPER MTN     CLOUDY    23   3  42 W17       30.34S WCI   9
BERTHOUD PASS  FAIR      10   5  79 NW35G43   30.26R WCI -13
COTTONWOOD PAS CLOUDY    32   1  27 N5        30.27F WCI  27
GUNNISON       PTSUNNY   -8 -27  37 W6        30.49F WCI -21
KREMMLING      CLOUDY     0  -6  78 CALM      30.47S
LEADVILLE      CLOUDY    16   7  67 NE10      30.32S WCI   4
MONARCH PASS   PTSUNNY   14   5  67 MISG      30.42R
SALIDA         CLOUDY    29  11  46 NW13G18   30.37R WCI  19
SUNLIGHT       CLOUDY    23   9  54 W5        30.40R WCI  17
WILKERSON PASS CLOUDY    28  -8  20 NW23G36   30.27S WCI  14
$$

COZ069>075-241700-
...SAN LUIS VALLEY/SANGRE DE CRISTO MOUNTAINS...

CITY           SKY/WX    TMP DP  RH WIND       PRES   REMARKS
ALAMOSA        PTSUNNY   12   5  73 E3        30.35S
LA VETA PASS   NOT AVBL
SAGUACHE       PTSUNNY   10   5  79 E8        30.35R WCI  -1
$$

COZ035-036-038>040-241700-
...NORTHERN COLORADO FRONT RANGE...

CITY           SKY/WX    TMP DP  RH WIND       PRES   REMARKS
DENVER INTL AP CLOUDY    37  17  44 SW14      30.05F
DMNS CITY PARK   N/A     38  12  34 S7G13     30.06S
AURORA         PTSUNNY   36  15  41 SW13      30.07F
FRONT RANGE AP NOT AVBL
ERIE MUNI ARPT CLOUDY    44  14  29 SW8       30.04S
BOULDER MUN AP CLOUDY    50   5  16 W18       30.03F
CENTENNIAL     CLOUDY    39  12  33 SW13      30.08F
BROOMFIELD     PTSUNNY   46  10  23 W17       30.06F
FORT COLLINS   CLOUDY    27  19  74 CALM      30.06F
LONGMONT       CLOUDY    32  21  65 CALM      30.05F
$$

COZ041-046-047-076>085-087-088-241700-
...PIKES PEAK/PALMER DIVIDE AND SOUTHERN FOOTHILLS...

CITY           SKY/WX    TMP DP  RH WIND       PRES   REMARKS
COLO. SPRINGS  CLOUDY    41  17  38 N9        30.12R
A. F. ACADEMY  CLOUDY    34  13  41 N7        30.11S WCI  28
ELLICOTT       PTSUNNY  N/A N/A N/A N3        30.09F
FALCON         PTSUNNY   38  12  34 NW9       30.12S
FORT CARSON    PTSUNNY   35  19  51 NW13      30.10S WCI  26
LIMON          MOSUNNY   36  23  59 W6        30.08F
MONUMENT HILL  CLOUDY    32  12  43 SW10      30.11S WCI  24
TRINIDAD       SUNNY     35  20  54 W12       30.13R WCI  27
$$

COZ042>045-048>051-090-091-241700-
...NORTHEAST COLORADO...

CITY           SKY/WX    TMP DP  RH WIND       PRES   REMARKS
GREELEY ARPT   CLOUDY    27  18  69 CALM      30.04F
AKRON          CLOUDY    30  23  75 W7        30.03F WCI  23
BURLINGTON     SUNNY     39  27  62 W10       30.05F
WRAY           CLOUDY    35  28  75 W8        30.03F WCI  29
STERLING       CLOUDY    32  28  86 S7        30.03F WCI  26
HOLYOKE        CLOUDY    34  27  75 W12       30.01F WCI  25
FORT MORGAN    CLOUDY    29  23  76 CALM      30.05S
$$

COZ086-089-092>099-241700-
...SOUTHEAST COLORADO...

CITY           SKY/WX    TMP DP  RH WIND       PRES   REMARKS
PUEBLO         MOSUNNY   32  22  66 W3        30.11S
LA JUNTA       SUNNY     34  25  69 W7        30.12R WCI  28
LAMAR          SUNNY     35  26  69 W9        30.12R WCI  28
SPRINGFIELD      N/A     35  24  64 SW14      30.11F WCI  26
$$


USA.gov is the U.S. government's official web portal to all federal, state and local government web resources and services.